Weather observations for the past three days for
Marion County Airport
Metric (Imperial)
Date Time (edt) Wind (kph) Vis. (km) Weather Sky Cond. Temperature (ºC) Relative Humidity Wind Chill (°C) Heat Index (°C) Pressure Precipitation (cm)
Air Dwpt 6 hour altimeter (cm) sea level (mb) 1 hr 3 hr 6 hr
Max. Min.
06 01:55 Calm 16.09 Fair CLR 16 16 100% 76.23 0.0
06 01:35 Calm 16.09 Fair CLR 16 16 100% 76.25 0.0
06 01:15 S 7 16.09 Fair CLR 16 15 94% 76.25 0.0
06 00:55 S 7 16.09 Fair CLR 16 15 94% 76.25 0.0
06 00:35 S 6 16.09 Fair CLR 16 15 94% 76.28 0.0
06 00:15 S 7 16.09 Fair CLR 16 14 88% 76.28 0.0
05 23:55 S 7 16.09 Fair CLR 17 14 83% 76.28 0.0
05 23:35 S 7 16.09 Fair CLR 17 13 77% 76.28 0.0
05 23:15 S 7 16.09 Fair CLR 17 13 77% 76.3 0.0
05 22:55 S 9 16.09 Fair CLR 17 13 77% 76.3 0.0
05 22:35 S 9 16.09 Fair CLR 18 13 73% 76.3 0.0
05 22:15 S 11 16.09 Fair CLR 18 13 73% 76.28 0.0
05 21:55 S 11 16.09 Fair CLR 18 13 73% 76.28 0.0
05 21:35 S 11 16.09 Fair CLR 19 13 68% 76.28 0.0
05 21:15 S 9 16.09 Fair CLR 19 13 68% 76.25 0.0
05 20:55 S 11 16.09 Fair CLR 20 13 64% 76.23 0.0
05 20:35 S 13 16.09 Fair CLR 20 12 60% 76.23 0.0
05 20:15 S 15 16.09 Fair CLR 21 12 57% 76.2 0.0
05 19:55 S 13 16.09 Fair CLR 21 12 57% 76.2 0.0
05 19:35 S 22 G 28 16.09 Fair CLR 22 12 53% 76.2 0.0
05 19:15 S 20 G 31 16.09 Fair CLR 23 12 50% 76.2 0.0
05 18:55 S 20 G 30 16.09 Fair CLR 23 12 50% 76.2 0.0
05 18:35 S 19 G 31 16.09 Fair CLR 24 12 47% 25 76.2 0.0
05 18:15 S 22 G 31 16.09 Fair CLR 24 12 47% 25 76.2 0.0
05 17:55 S 19 G 30 16.09 Fair CLR 25 12 44% 26 76.17 0.0
05 17:35 S 17 G 31 16.09 Fair CLR 25 12 44% 26 76.17 0.0
05 17:15 S 17 G 31 16.09 Partly Cloudy SCT060 25 12 44% 26 76.2 0.0
05 16:55 S 17 G 26 16.09 Partly Cloudy SCT060 25 12 44% 26 76.2 0.0
05 16:35 S 17 G 26 16.09 Mostly Cloudy BKN065 25 12 44% 26 76.2 0.0
05 16:15 S 17 G 30 16.09 Partly Cloudy SCT060 25 12 44% 26 76.2 0.0
05 15:55 S 19 G 30 16.09 Partly Cloudy SCT060 26 11 39% 26 76.2 0.0
05 15:35 SE 13 16.09 Partly Cloudy SCT060 26 11 39% 26 76.23 0.0
05 15:15 S 20 16.09 Partly Cloudy SCT060 26 11 39% 26 76.25 0.0
05 14:55 S 13 G 26 16.09 Partly Cloudy SCT060 26 11 39% 26 76.28 0.0
05 14:35 S 20 G 30 16.09 Fair CLR 26 11 39% 26 76.28 0.0
05 14:15 S 17 16.09 Fair CLR 25 10 39% 26 76.28 0.0
05 13:55 S 13 16.09 Fair CLR 25 10 39% 26 76.3 0.0
05 13:35 S 13 16.09 Partly Cloudy SCT050 25 11 42% 26 76.33 0.0
05 13:15 S 13 G 26 16.09 Partly Cloudy SCT050 24 11 44% 25 76.35 0.0
05 12:55 S 17 G 26 16.09 Partly Cloudy SCT050 24 12 47% 25 76.35 0.0
05 12:35 S 11 16.09 Fair CLR 23 11 47% 76.38 0.0
05 12:15 S 17 16.09 Fair CLR 23 12 50% 76.38 0.0
05 11:55 S 9 16.09 Fair CLR 23 12 50% 76.4 0.0
05 11:35 S 15 16.09 Fair CLR 22 12 53% 76.43 0.0
05 11:15 SW 15 16.09 Fair CLR 22 12 53% 76.4 0.0
05 10:55 S 13 16.09 Fair CLR 22 12 53% 76.4 0.0
05 10:35 S 15 16.09 Fair CLR 21 12 57% 76.4 0.0
05 10:15 S 17 16.09 Fair CLR 21 12 57% 76.4 0.0
05 09:55 S 19 16.09 Fair CLR 21 12 57% 76.4 0.0
05 09:35 SW 17 16.09 Fair CLR 20 13 64% 76.4 0.0
05 09:15 S 13 16.09 Fair CLR 19 13 68% 76.4 0.0
05 08:55 S 13 16.09 Fair CLR 17 13 77% 76.4 0.0
05 08:35 S 11 16.09 Fair CLR 16 14 88% 76.4 0.0
05 08:15 S 7 16.09 Fair CLR 15 14 94% 76.38 0.0
05 07:55 S 6 16.09 Fair CLR 13 13 100% 76.38 0.0
05 07:35 Calm 16.09 Fair CLR 12 12 100% 76.38 0.0
05 07:15 Calm 16.09 Fair CLR 11 11 100% 76.35 0.0
05 06:55 Calm 16.09 Fair CLR 11 11 100% 76.33 0.0
05 06:35 Calm 16.09 Fair CLR 11 11 100% 76.33 0.0
05 06:15 Calm 16.09 Fair CLR 11 11 100% 76.3 0.0
05 05:55 S 6 16.09 Fair CLR 11 11 100% 76.3 0.0
05 05:35 S 6 16.09 Fair CLR 11 11 100% 76.3 0.0
05 05:15 Calm 16.09 Fair CLR 12 12 100% 76.28 0.0
05 04:55 S 6 16.09 Fair CLR 12 11 94% 76.28 0.0
05 04:35 S 6 16.09 Fair CLR 12 11 94% 76.25 0.0
05 04:15 S 6 16.09 Fair CLR 12 11 94% 76.25 0.0
05 03:55 S 7 16.09 Fair CLR 12 11 94% 76.25 0.0
05 03:35 S 6 16.09 Fair CLR 12 10 88% 76.25 0.0
05 03:15 S 6 16.09 Fair CLR 12 10 88% 76.25 0.0
05 02:55 S 7 16.09 Fair CLR 13 10 82% 76.25 0.0
05 02:35 S 6 16.09 Fair CLR 13 10 82% 76.28 0.0
05 02:15 Calm 16.09 Fair CLR 13 10 82% 76.28 0.0
05 01:55 S 6 16.09 Fair CLR 13 10 82% 76.28 0.0
05 01:35 S 7 16.09 Fair CLR 13 10 82% 76.3 0.0
05 01:15 S 9 16.09 Fair CLR 14 9 72% 76.3 0.0
05 00:55 S 7 16.09 Fair CLR 13 9 77% 76.33 0.0
05 00:35 S 9 16.09 Fair CLR 14 9 72% 76.33 0.0
05 00:15 S 7 16.09 Fair CLR 15 9 68% 76.3 0.0
04 23:55 Calm 16.09 Fair CLR 15 9 68% 76.33 0.0
04 23:35 S 7 16.09 Fair CLR 15 9 68% 76.33 0.0
04 23:15 S 7 16.09 Fair CLR 16 9 63% 76.33 0.0
04 22:55 S 6 16.09 Fair CLR 16 9 63% 76.33 0.0
04 22:35 S 11 16.09 Fair CLR 17 9 60% 76.33 0.0
04 22:15 S 11 16.09 Fair CLR 17 9 60% 76.3 0.0
04 21:55 S 11 16.09 Fair CLR 18 9 56% 76.3 0.0
04 21:35 S 11 16.09 Fair CLR 18 9 56% 76.3 0.0
04 21:15 S 13 16.09 Fair CLR 18 10 60% 76.28 0.0
04 20:55 S 15 16.09 Fair CLR 18 10 60% 76.25 0.0
04 20:35 S 13 16.09 Fair CLR 19 10 56% 76.23 0.0
04 20:15 S 17 16.09 Fair CLR 20 10 53% 76.2 0.0
04 19:55 S 15 16.09 Fair CLR 20 10 53% 76.2 0.0
04 19:35 S 11 16.09 Fair CLR 21 10 50% 76.2 0.0
04 19:15 S 15 16.09 Fair CLR 21 10 50% 76.17 0.0
04 18:55 S 22 G 30 16.09 Fair CLR 22 10 47% 76.17 0.0
04 18:35 S 19 G 30 16.09 Fair CLR 23 10 44% 76.17 0.0
04 18:15 S 20 G 31 16.09 Fair CLR 23 10 44% 76.15 0.0
04 17:55 S 24 16.09 Fair CLR 25 6 30% 25 76.15 0.0
04 17:35 S 20 G 30 16.09 Fair CLR 25 7 32% 25 76.15 0.0
04 17:15 S 17 G 26 16.09 Fair CLR 25 6 30% 25 76.15 0.0
04 16:55 S 19 G 30 16.09 Fair CLR 25 6 30% 25 76.17 0.0
04 16:35 S 22 G 28 16.09 Fair CLR 25 6 30% 25 76.17 0.0
04 16:15 S 17 16.09 Fair CLR 25 6 30% 25 76.2 0.0
04 15:55 S 17 16.09 Fair CLR 25 6 30% 25 76.2 0.0
04 15:35 S 13 G 28 16.09 Fair CLR 25 6 30% 25 76.23 0.0
04 15:15 SW 20 G 28 16.09 Fair CLR 25 6 30% 25 76.25 0.0
04 14:55 SW 7 G 28 16.09 Fair CLR 25 6 30% 25 76.25 0.0
04 14:35 SW 11 16.09 Fair CLR 25 7 32% 25 76.28 0.0
04 14:15 SW 9 16.09 Fair CLR 24 6 31% 25 76.28 0.0
04 13:55 W 9 16.09 Fair CLR 23 6 33% 76.3 0.0
04 13:35 S 11 16.09 Fair CLR 23 6 33% 76.3 0.0
04 13:15 W 17 16.09 Fair CLR 23 6 33% 76.33 0.0
04 12:55 W 13 16.09 Fair CLR 23 5 31% 76.33 0.0
04 12:35 SW 7 16.09 Fair CLR 22 5 33% 76.35 0.0
04 12:15 W 15 16.09 Fair CLR 22 6 36% 76.38 0.0
04 11:55 SW 20 16.09 Fair CLR 22 6 36% 76.38 0.0
04 11:35 W 7 16.09 Fair CLR 22 7 38% 76.38 0.0
04 11:15 W 13 16.09 Fair CLR 21 8 43% 76.4 0.0
04 10:55 W 11 16.09 Fair CLR 21 9 46% 76.4 0.0
04 10:35 W 7 16.09 Fair CLR 20 10 53% 76.4 0.0
04 10:15 SW 7 16.09 Fair CLR 19 10 56% 76.38 0.0
04 09:55 SW 7 16.09 Fair CLR 18 10 60% 76.38 0.0
04 09:35 S 9 16.09 Fair CLR 17 10 64% 76.4 0.0
04 09:15 W 15 16.09 Fair CLR 16 10 68% 76.43 0.0
04 08:55 S 11 16.09 Fair CLR 15 11 77% 76.4 0.0
04 08:35 S 11 16.09 Fair CLR 14 12 88% 76.4 0.0
04 08:15 S 9 16.09 Fair CLR 12 12 100% 76.4 0.0
04 07:55 Calm 16.09 Fair CLR 11 11 100% 76.4 0.0
04 07:35 Calm 16.09 Fair CLR 10 10 100% 76.4 0.0
04 07:15 Calm 16.09 Fair CLR 8 8 100% 76.4 0.0
04 06:55 Calm 16.09 Fair CLR 8 8 100% 76.4 0.0
04 06:35 Calm 16.09 Fair CLR 8 8 100% 76.38 0.0
04 06:15 Calm 16.09 Fair CLR 8 8 100% 76.38 0.0
04 05:55 Calm 16.09 Fair CLR 8 8 100% 76.38 0.0
04 05:35 Calm 16.09 Fair CLR 9 9 100% 76.38 0.0
04 05:15 Calm 16.09 Fair CLR 10 10 100% 76.38 0.0
04 04:55 Calm 16.09 Fair CLR 11 10 94% 76.38 0.0
04 04:35 S 7 16.09 Fair CLR 11 10 94% 76.38 0.0
04 04:15 S 7 16.09 Fair CLR 10 10 100% 9 76.38 0.0
04 03:55 S 7 16.09 Fair CLR 10 10 100% 9 76.38 0.0
04 03:40 S 7 16.09 Fair CLR 10 10 100% 9 76.38 0.0
04 03:15 S 6 16.09 Fair CLR 10 10 100% 76.4 0.0
04 02:55 Calm 16.09 Fair CLR 11 9 88% 76.4 0.0
04 02:15 S 7 16.09 Fair CLR 11 9 88% 76.43 0.0
04 01:55 S 7 16.09 Fair CLR 11 8 82% 76.43 0.0
04 01:35 S 6 16.09 Fair CLR 11 8 82% 76.43 0.0
04 01:15 S 7 16.09 Fair CLR 11 8 82% 76.43 0.0
04 01:00 S 7 16.09 Fair CLR 11 8 82% 76.43 0.0
04 00:35 S 6 16.09 Fair CLR 12 8 77% 76.43 0.0
04 00:15 S 7 16.09 Fair CLR 12 8 77% 76.43 0.0
03 23:55 S 9 16.09 Fair CLR 12 8 77% 76.43 0.0
03 23:35 S 7 16.09 Fair CLR 12 8 77% 76.43 0.0
03 23:15 S 9 16.09 Fair CLR 13 8 72% 76.43 0.0
03 22:55 S 11 16.09 Fair CLR 13 8 72% 76.43 0.0
03 22:35 S 7 16.09 Fair CLR 13 8 72% 76.4 0.0
03 22:15 S 9 16.09 Fair CLR 13 8 72% 76.4 0.0
03 21:55 S 9 16.09 Fair CLR 13 7 67% 76.38 0.0
03 21:35 S 6 16.09 Fair CLR 13 7 67% 76.35 0.0
03 21:15 S 6 16.09 Fair CLR 15 7 59% 76.35 0.0
03 20:55 S 6 16.09 Fair CLR 15 6 55% 76.33 0.0
03 20:35 S 7 16.09 Fair CLR 15 6 55% 76.33 0.0
03 20:15 S 6 16.09 Fair CLR 16 7 55% 76.3 0.0
03 19:55 S 6 16.09 Fair CLR 17 5 45% 76.3 0.0
03 19:35 S 9 16.09 Fair CLR 18 5 43% 76.28 0.0
03 19:15 S 7 16.09 Fair CLR 19 4 37% 76.28 0.0
03 18:55 W 6 16.09 Fair CLR 20 4 35% 76.28 0.0
03 18:35 W 13 16.09 Fair CLR 20 4 35% 76.3 0.0
03 18:15 S 6 16.09 Fair CLR 20 3 33% 76.3 0.0
03 17:55 W 17 16.09 Fair CLR 20 3 33% 76.3 0.0
03 17:35 W 17 16.09 Fair CLR 20 3 33% 76.28 0.0
03 17:15 NW 11 16.09 Fair CLR 20 3 33% 76.28 0.0
03 16:55 W 17 G 26 16.09 Fair CLR 20 3 33% 76.28 0.0
03 16:35 W 9 G 17 16.09 Partly Cloudy SCT060 19 3 35% 76.33 0.0
03 16:15 W 13 16.09 Partly Cloudy SCT060 20 4 35% 76.35 0.0
03 15:55 W 15 16.09 Partly Cloudy SCT060 20 4 35% 76.38 0.0
03 15:35 NW 6 16.09 Partly Cloudy SCT060 19 5 40% 76.38 0.0
03 15:15 NW 11 G 17 16.09 Fair CLR 18 4 40% 76.4 0.0
03 14:55 W 15 G 26 16.09 Fair CLR 18 4 40% 76.4 0.0
03 14:35 NW 15 G 26 16.09 Fair CLR 18 5 43% 76.43 0.0
03 14:15 NW 17 G 30 16.09 Fair CLR 18 5 43% 76.45 0.0
03 13:55 N 6 16.09 Fair CLR 17 3 39% 76.45 0.0
03 13:35 NW 7 16.09 Fair CLR 17 4 42% 76.45 0.0
03 13:15 N 6 16.09 Fair CLR 16 3 42% 76.5 0.0
03 12:55 N 13 16.09 Fair CLR 17 3 39% 76.53 0.0
03 12:35 Calm 16.09 Fair CLR 16 3 42% 76.56 0.0
03 12:15 N 9 16.09 Fair CLR 16 3 42% 76.56 0.0
03 11:55 N 11 16.09 Fair CLR 15 3 45% 76.58 0.0
03 11:35 NE 9 16.09 Fair CLR 15 3 45% 76.58 0.0
03 11:15 N 13 16.09 Fair CLR 15 3 45% 76.58 0.0
03 10:55 N 9 16.09 Fair CLR 15 3 45% 76.56 0.0
03 10:35 N 11 16.09 Fair CLR 15 3 45% 76.56 0.0
03 10:15 N 13 G 28 16.09 Fair CLR 14 3 48% 76.53 0.0
03 09:55 N 17 16.09 Fair CLR 13 4 55% 76.53 0.0
03 09:35 N 15 16.09 Fair CLR 12 5 63% 76.53 0.0
03 09:15 N 13 16.09 Fair CLR 12 6 67% 76.53 0.0
03 08:55 N 17 16.09 Fair CLR 8 8 100% 6 76.53 0.0
03 08:35 N 9 16.09 Fair CLR 8 8 100% 7 76.53 0.0
03 08:15 N 9 16.09 Fair CLR 8 8 100% 7 76.5 0.0
03 07:55 N 9 16.09 Fair CLR 7 7 100% 5 76.48 0.0
03 07:35 Calm 16.09 Fair CLR 7 7 100% 76.45 0.0
03 07:15 Calm 11.27 Partly Cloudy SCT002 7 7 100% 76.45 0.0
03 06:55 Calm 0.24 Fog OVC002 6 6 100% 76.43 0.0
03 06:35 Calm 0.24 Fog OVC002 6 6 100% 76.38 0.0
03 06:15 Calm 0.40 Fog OVC002 6 6 100% 76.35 0.0
03 05:35 Calm 0.40 Fog OVC002 6 6 100% 76.33 0.0
03 05:15 Calm 0.80 Fog OVC002 7 7 100% 76.33 0.0
03 04:55 Calm 1.21 Fog/Mist BKN002 6 6 100% 76.33 0.0
03 04:35 Calm 2.01 Fog/Mist VV007 6 6 100% 76.3 0.0
03 04:15 NW 6 8.05 Fog/Mist CLR 7 7 100% 76.28 0.0
03 03:55 NW 6 2.01 Fog/Mist VV007 7 7 100% 76.28 0.0
03 03:35 Calm 4.83 Fog/Mist CLR 7 7 100% 76.25 0.0
03 03:15 Calm 4.83 Fog/Mist SCT120 7 7 100% 76.25 0.0
03 02:55 Calm 8.05 Fog/Mist SCT002 BKN120 7 7 100% 76.23 0.0
03 02:35 Calm 0.40 Fog OVC002 7 7 100% 76.23 0.0
03 02:15 Calm 1.21 Fog/Mist BKN002 BKN110 8 8 100% 76.2 0.0
Date Time (edt) Wind (kph) Vis. (km) Weather Sky Cond. Air Dwpt Max. Min. Relative Humidity Wind Chill (°C) Heat Index (°C) altimeter (cm) sea level (mb) 1 hr 3 hr 6 hr
6 hour
Temperature (ºC) Pressure Precipitation (cm)